Time,TemperatureF,DewpointF,PressureIn,WindDirection,WindDirectionDegrees,WindSpeedMPH,WindSpeedGustMPH,Humidity,HourlyPrecipIn,Conditions,Clouds,dailyrainin,SoftwareType,DateUTC
2013-01-29 00:00:00,47.0,-99.9,30.20,WNW,302,0.0,16.3,-999,-99.99,,,-99.99,,2013-01-29 08:00:00,
2013-01-29 00:10:00,47.0,-99.9,30.20,WSW,255,0.0,14.0,-999,-99.99,,,-99.99,,2013-01-29 08:10:00,
2013-01-29 00:20:00,47.0,-99.9,30.20,West,275,0.0,12.9,-999,-99.99,,,-99.99,,2013-01-29 08:20:00,
2013-01-29 00:30:00,47.0,-99.9,30.20,WSW,242,0.0,8.7,-999,-99.99,,,-99.99,,2013-01-29 08:30:00,
2013-01-29 00:35:00,46.9,-99.9,30.20,SW,232,5.0,11.1,-999,-99.99,,,-99.99,,2013-01-29 08:35:00,
2013-01-29 00:40:00,47.1,-99.9,30.20,WNW,297,0.0,0.0,-999,-99.99,,,-99.99,,2013-01-29 08:40:00,
2013-01-29 00:50:00,46.9,-99.9,30.20,West,262,0.0,0.0,-999,-99.99,,,-99.99,,2013-01-29 08:50:00,
2013-01-29 01:00:00,46.8,-99.9,30.20,WNW,290,0.0,0.0,-999,-99.99,,,-99.99,,2013-01-29 09:00:00,
2013-01-29 01:05:00,46.7,-99.9,30.20,West,263,8.2,14.8,-999,-99.99,,,-99.99,,2013-01-29 09:05:00,
2013-01-29 01:10:00,46.5,-99.9,30.19,North,0,8.5,20.8,-999,-99.99,,,-99.99,,2013-01-29 09:10:00,
2013-01-29 01:15:00,46.7,-99.9,30.19,WSW,238,0.0,0.0,-999,-99.99,,,-99.99,,2013-01-29 09:15:00,
2013-01-29 01:20:00,46.7,-99.9,30.19,WSW,238,0.0,0.0,-999,-99.99,,,-99.99,,2013-01-29 09:20:00,
2013-01-29 01:25:00,46.7,-99.9,30.20,WSW,256,0.0,0.0,-999,-99.99,,,-99.99,,2013-01-29 09:25:00,
2013-01-29 01:30:00,46.7,-99.9,30.20,WSW,256,0.0,0.0,-999,-99.99,,,-99.99,,2013-01-29 09:30:00,
2013-01-29 01:35:00,46.7,-99.9,30.20,West,278,0.0,0.0,-999,-99.99,,,-99.99,,2013-01-29 09:35:00,
2013-01-29 01:40:00,46.7,-99.9,30.20,West,265,0.0,0.0,-999,-99.99,,,-99.99,,2013-01-29 09:40:00,
2013-01-29 01:50:00,46.6,-99.9,30.20,West,265,0.0,0.0,-999,-99.99,,,-99.99,,2013-01-29 09:50:00,
2013-01-29 01:55:00,46.4,-99.9,30.20,SW,217,0.0,0.0,-999,-99.99,,,-99.99,,2013-01-29 09:55:00,
2013-01-29 02:00:00,46.5,-99.9,30.21,SW,217,0.0,0.0,-999,-99.99,,,-99.99,,2013-01-29 10:00:00,
2013-01-29 02:05:00,46.5,-99.9,30.21,SW,217,0.0,0.0,-999,-99.99,,,-99.99,,2013-01-29 10:05:00,
2013-01-29 02:10:00,46.4,-99.9,30.21,SSW,200,0.0,12.2,-999,-99.99,,,-99.99,,2013-01-29 10:10:00,
2013-01-29 02:15:00,46.4,-99.9,30.21,SSW,200,0.0,0.0,-999,-99.99,,,-99.99,,2013-01-29 10:15:00,
2013-01-29 02:20:00,46.4,-99.9,30.21,WNW,295,0.0,0.0,-999,-99.99,,,-99.99,,2013-01-29 10:20:00,
2013-01-29 02:25:00,46.4,-99.9,30.21,WNW,295,0.0,0.0,-999,-99.99,,,-99.99,,2013-01-29 10:25:00,
2013-01-29 02:30:00,46.4,-99.9,30.21,WNW,295,0.0,0.0,-999,-99.99,,,-99.99,,2013-01-29 10:30:00,
2013-01-29 02:35:00,46.4,-99.9,30.21,West,266,0.0,7.1,-999,-99.99,,,-99.99,,2013-01-29 10:35:00,
2013-01-29 02:40:00,46.3,-99.9,30.21,West,266,0.0,0.0,-999,-99.99,,,-99.99,,2013-01-29 10:40:00,
2013-01-29 02:45:00,46.3,-99.9,30.21,WSW,258,0.0,0.0,-999,-99.99,,,-99.99,,2013-01-29 10:45:00,
2013-01-29 02:50:00,46.2,-99.9,30.21,WSW,258,0.0,0.0,-999,-99.99,,,-99.99,,2013-01-29 10:50:00,
2013-01-29 02:55:00,46.2,-99.9,30.21,WSW,258,0.0,0.0,-999,-99.99,,,-99.99,,2013-01-29 10:55:00,
2013-01-29 03:00:00,46.2,-99.9,30.20,WSW,258,0.0,0.0,-999,-99.99,,,-99.99,,2013-01-29 11:00:00,
2013-01-29 03:05:00,46.2,-99.9,30.20,West,262,0.0,0.0,-999,-99.99,,,-99.99,,2013-01-29 11:05:00,
2013-01-29 03:10:00,46.2,-99.9,30.20,WSW,248,0.0,0.0,-999,-99.99,,,-99.99,,2013-01-29 11:10:00,
2013-01-29 03:15:00,46.2,-99.9,30.21,WSW,248,0.0,0.0,-999,-99.99,,,-99.99,,2013-01-29 11:15:00,
2013-01-29 03:20:00,46.2,-99.9,30.21,WSW,248,0.0,0.0,-999,-99.99,,,-99.99,,2013-01-29 11:20:00,
2013-01-29 03:30:00,46.1,-99.9,30.20,WSW,248,0.0,0.0,-999,-99.99,,,-99.99,,2013-01-29 11:30:00,
2013-01-29 03:40:00,46.1,-99.9,30.21,WSW,248,0.0,0.0,-999,-99.99,,,-99.99,,2013-01-29 11:40:00,
2013-01-29 03:45:00,46.2,-99.9,30.21,WSW,248,0.0,0.0,-999,-99.99,,,-99.99,,2013-01-29 11:45:00,
2013-01-29 03:50:00,46.2,-99.9,30.21,WSW,248,0.0,0.0,-999,-99.99,,,-99.99,,2013-01-29 11:50:00,
2013-01-29 04:00:00,46.0,-99.9,30.21,SW,234,0.0,0.0,-999,-99.99,,,-99.99,,2013-01-29 12:00:00,
2013-01-29 04:10:00,45.9,-99.9,30.21,West,266,0.0,12.7,-999,-99.99,,,-99.99,,2013-01-29 12:10:00,
2013-01-29 04:20:00,45.8,-99.9,30.21,WSW,251,0.0,13.2,-999,-99.99,,,-99.99,,2013-01-29 12:20:00,
2013-01-29 04:30:00,45.8,-99.9,30.21,West,259,0.0,17.4,-999,-99.99,,,-99.99,,2013-01-29 12:30:00,
2013-01-29 04:40:00,45.7,-99.9,30.21,West,261,0.0,9.0,-999,-99.99,,,-99.99,,2013-01-29 12:40:00,
2013-01-29 04:50:00,45.7,-99.9,30.22,WNW,299,0.0,0.0,-999,-99.99,,,-99.99,,2013-01-29 12:50:00,
2013-01-29 05:00:00,45.7,-99.9,30.22,WNW,299,0.0,0.0,-999,-99.99,,,-99.99,,2013-01-29 13:00:00,
2013-01-29 05:10:00,45.6,-99.9,30.22,WNW,299,0.0,0.0,-999,-99.99,,,-99.99,,2013-01-29 13:10:00,
2013-01-29 05:15:00,45.6,-99.9,30.22,West,273,8.0,13.8,-999,-99.99,,,-99.99,,2013-01-29 13:15:00,
2013-01-29 05:20:00,45.4,-99.9,30.22,WNW,299,0.0,0.0,-999,-99.99,,,-99.99,,2013-01-29 13:20:00,
2013-01-29 05:25:00,45.4,-99.9,30.22,WNW,297,0.0,12.1,-999,-99.99,,,-99.99,,2013-01-29 13:25:00,
2013-01-29 05:30:00,45.4,-99.9,30.22,WSW,237,0.0,7.1,-999,-99.99,,,-99.99,,2013-01-29 13:30:00,
2013-01-29 05:40:00,45.4,-99.9,30.21,WSW,256,0.0,8.5,-999,-99.99,,,-99.99,,2013-01-29 13:40:00,
2013-01-29 05:50:00,45.2,-99.9,30.21,SSW,197,0.0,11.9,-999,-99.99,,,-99.99,,2013-01-29 13:50:00,
2013-01-29 05:55:00,45.3,-99.9,30.22,WNW,303,0.0,11.1,-999,-99.99,,,-99.99,,2013-01-29 13:55:00,
2013-01-29 06:00:00,45.2,-99.9,30.22,WNW,292,0.0,11.3,-999,-99.99,,,-99.99,,2013-01-29 14:00:00,
2013-01-29 06:05:00,45.2,-99.9,30.22,WSW,254,0.0,10.8,-999,-99.99,,,-99.99,,2013-01-29 14:05:00,
2013-01-29 06:10:00,45.2,-99.9,30.22,West,272,0.0,0.0,-999,-99.99,,,-99.99,,2013-01-29 14:10:00,
2013-01-29 06:15:00,45.2,-99.9,30.22,SW,235,0.0,11.6,-999,-99.99,,,-99.99,,2013-01-29 14:15:00,
2013-01-29 06:20:00,45.2,-99.9,30.23,SW,235,0.0,0.0,-999,-99.99,,,-99.99,,2013-01-29 14:20:00,
2013-01-29 06:25:00,45.2,-99.9,30.22,West,265,0.0,0.0,-999,-99.99,,,-99.99,,2013-01-29 14:25:00,
2013-01-29 06:30:00,45.2,-99.9,30.23,West,265,0.0,0.0,-999,-99.99,,,-99.99,,2013-01-29 14:30:00,
2013-01-29 06:35:00,45.3,-99.9,30.23,West,265,0.0,0.0,-999,-99.99,,,-99.99,,2013-01-29 14:35:00,
2013-01-29 06:40:00,45.3,-99.9,30.23,West,265,0.0,0.0,-999,-99.99,,,-99.99,,2013-01-29 14:40:00,
2013-01-29 06:45:00,45.3,-99.9,30.23,WNW,292,0.0,0.0,-999,-99.99,,,-99.99,,2013-01-29 14:45:00,
2013-01-29 06:50:00,45.3,-99.9,30.23,WNW,292,0.0,0.0,-999,-99.99,,,-99.99,,2013-01-29 14:50:00,
2013-01-29 07:00:00,45.4,-99.9,30.23,WNW,292,0.0,0.0,-999,-99.99,,,-99.99,,2013-01-29 15:00:00,
2013-01-29 07:05:00,45.4,-99.9,30.23,WNW,292,0.0,0.0,-999,-99.99,,,-99.99,,2013-01-29 15:05:00,
2013-01-29 07:10:00,45.2,-99.9,30.23,WNW,292,0.0,0.0,-999,-99.99,,,-99.99,,2013-01-29 15:10:00,
2013-01-29 07:20:00,45.2,-99.9,30.23,WNW,292,0.0,0.0,-999,-99.99,,,-99.99,,2013-01-29 15:20:00,
2013-01-29 07:30:00,45.2,-99.9,30.24,WNW,292,0.0,0.0,-999,-99.99,,,-99.99,,2013-01-29 15:30:00,
2013-01-29 07:40:00,45.1,-99.9,30.24,WNW,292,0.0,0.0,-999,-99.99,,,-99.99,,2013-01-29 15:40:00,
2013-01-29 07:45:00,45.3,-99.9,30.25,WNW,292,0.0,0.0,-999,-99.99,,,-99.99,,2013-01-29 15:45:00,
2013-01-29 07:50:00,45.2,-99.9,30.24,WNW,292,0.0,0.0,-999,-99.99,,,-99.99,,2013-01-29 15:50:00,
2013-01-29 08:00:00,45.2,-99.9,30.24,WNW,292,0.0,0.0,-999,-99.99,,,-99.99,,2013-01-29 16:00:00,
2013-01-29 08:10:00,45.2,-99.9,30.24,WNW,292,0.0,0.0,-999,-99.99,,,-99.99,,2013-01-29 16:10:00,
2013-01-29 08:15:00,45.2,-99.9,30.24,WNW,292,0.0,0.0,-999,-99.99,,,-99.99,,2013-01-29 16:15:00,
2013-01-29 08:20:00,45.2,-99.9,30.24,WNW,292,0.0,0.0,-999,-99.99,,,-99.99,,2013-01-29 16:20:00,
2013-01-29 08:30:00,45.3,-99.9,30.25,WNW,292,0.0,0.0,-999,-99.99,,,-99.99,,2013-01-29 16:30:00,
2013-01-29 08:40:00,45.3,-99.9,30.25,WNW,292,0.0,0.0,-999,-99.99,,,-99.99,,2013-01-29 16:40:00,
2013-01-29 08:50:00,45.4,-99.9,30.25,WNW,292,0.0,0.0,-999,-99.99,,,-99.99,,2013-01-29 16:50:00,
2013-01-29 09:00:00,45.3,-99.9,30.25,WNW,292,0.0,0.0,-999,-99.99,,,-99.99,,2013-01-29 17:00:00,
2013-01-29 09:10:00,45.4,-99.9,30.25,WNW,300,0.0,9.0,-999,-99.99,,,-99.99,,2013-01-29 17:10:00,
2013-01-29 09:15:00,45.4,-99.9,30.25,WNW,300,7.7,21.2,-999,-99.99,,,-99.99,,2013-01-29 17:15:00,
2013-01-29 09:20:00,45.4,-99.9,30.25,NNW,328,8.7,18.0,-999,-99.99,,,-99.99,,2013-01-29 17:20:00,
2013-01-29 09:30:00,45.5,-99.9,30.26,NW,326,0.0,20.8,-999,-99.99,,,-99.99,,2013-01-29 17:30:00,
2013-01-29 09:37:00,45.7,-99.9,30.26,WNW,287,12.9,19.5,-999,-99.99,,,-99.99,,2013-01-29 17:37:00,
2013-01-29 09:45:00,45.9,-99.9,30.27,WNW,283,14.8,21.6,-999,-99.99,,,-99.99,,2013-01-29 17:45:00,
2013-01-29 09:50:00,45.9,-99.9,30.27,NW,314,12.9,20.4,-999,-99.99,,,-99.99,,2013-01-29 17:50:00,
2013-01-29 10:00:00,46.1,-99.9,30.27,WNW,287,0.0,23.0,-999,-99.99,,,-99.99,,2013-01-29 18:00:00,
2013-01-29 10:20:00,46.6,-99.9,30.27,WSW,248,0.0,19.6,-999,-99.99,,,-99.99,,2013-01-29 18:20:00,
2013-01-29 10:30:00,46.8,-99.9,30.27,West,279,8.4,14.2,-999,-99.99,,,-99.99,,2013-01-29 18:30:00,
2013-01-29 10:35:00,46.9,-99.9,30.27,WSW,258,11.1,24.8,-999,-99.99,,,-99.99,,2013-01-29 18:35:00,
2013-01-29 10:45:00,47.0,-99.9,30.27,SW,215,8.9,14.5,-999,-99.99,,,-99.99,,2013-01-29 18:45:00,
2013-01-29 10:50:00,47.1,-99.9,30.27,WSW,252,0.0,16.9,-999,-99.99,,,-99.99,,2013-01-29 18:50:00,
2013-01-29 11:00:00,47.3,-99.9,30.27,West,276,12.4,12.4,-999,-99.99,,,-99.99,,2013-01-29 19:00:00,
2013-01-29 11:10:00,47.3,-99.9,30.28,West,265,0.0,12.2,-999,-99.99,,,-99.99,,2013-01-29 19:10:00,
2013-01-29 11:20:00,47.5,-99.9,30.28,West,268,0.0,11.3,-999,-99.99,,,-99.99,,2013-01-29 19:20:00,
2013-01-29 11:25:00,47.5,-99.9,30.28,West,268,0.0,0.0,-999,-99.99,,,-99.99,,2013-01-29 19:25:00,
2013-01-29 11:30:00,47.5,-99.9,30.28,WSW,256,0.0,0.0,-999,-99.99,,,-99.99,,2013-01-29 19:30:00,
2013-01-29 11:35:00,47.6,-99.9,30.28,WSW,256,0.0,0.0,-999,-99.99,,,-99.99,,2013-01-29 19:35:00,
2013-01-29 11:40:00,47.6,-99.9,30.28,WSW,256,0.0,0.0,-999,-99.99,,,-99.99,,2013-01-29 19:40:00,
2013-01-29 11:45:00,47.9,-99.9,30.27,WSW,248,0.0,13.8,-999,-99.99,,,-99.99,,2013-01-29 19:45:00,
2013-01-29 11:50:00,47.9,-99.9,30.27,SW,220,0.0,0.0,-999,-99.99,,,-99.99,,2013-01-29 19:50:00,
2013-01-29 11:55:00,48.1,-99.9,30.27,SW,220,0.0,0.0,-999,-99.99,,,-99.99,,2013-01-29 19:55:00,
2013-01-29 12:00:00,48.3,-99.9,30.26,SW,220,0.0,0.0,-999,-99.99,,,-99.99,,2013-01-29 20:00:00,
2013-01-29 12:05:00,48.4,-99.9,30.26,West,263,0.0,8.2,-999,-99.99,,,-99.99,,2013-01-29 20:05:00,
2013-01-29 12:10:00,48.4,-99.9,30.25,WSW,242,0.0,0.0,-999,-99.99,,,-99.99,,2013-01-29 20:10:00,
2013-01-29 12:15:00,48.5,-99.9,30.25,WSW,242,0.0,0.0,-999,-99.99,,,-99.99,,2013-01-29 20:15:00,
2013-01-29 12:20:00,48.7,-99.9,30.24,West,262,8.4,10.9,-999,-99.99,,,-99.99,,2013-01-29 20:20:00,
2013-01-29 12:25:00,48.8,-99.9,30.24,SW,215,0.0,0.0,-999,-99.99,,,-99.99,,2013-01-29 20:25:00,
2013-01-29 12:30:00,48.9,-99.9,30.24,SW,215,0.0,0.0,-999,-99.99,,,-99.99,,2013-01-29 20:30:00,
2013-01-29 12:35:00,49.0,-99.9,30.24,WSW,242,0.0,0.0,-999,-99.99,,,-99.99,,2013-01-29 20:35:00,
2013-01-29 12:40:00,48.9,-99.9,30.24,WSW,242,0.0,0.0,-999,-99.99,,,-99.99,,2013-01-29 20:40:00,
2013-01-29 12:45:00,49.0,-99.9,30.24,WSW,242,0.0,0.0,-999,-99.99,,,-99.99,,2013-01-29 20:45:00,
2013-01-29 12:50:00,49.4,-99.9,30.24,WNW,295,0.0,0.0,-999,-99.99,,,-99.99,,2013-01-29 20:50:00,
2013-01-29 13:00:00,49.5,-99.9,30.24,WNW,297,0.0,0.0,-999,-99.99,,,-99.99,,2013-01-29 21:00:00,
2013-01-29 13:10:00,49.9,-99.9,30.23,WNW,293,9.0,10.8,-999,-99.99,,,-99.99,,2013-01-29 21:10:00,
2013-01-29 13:15:00,50.0,-99.9,30.23,NNW,330,0.0,0.0,-999,-99.99,,,-99.99,,2013-01-29 21:15:00,
2013-01-29 13:20:00,50.2,-99.9,30.22,WSW,238,0.0,13.0,-999,-99.99,,,-99.99,,2013-01-29 21:20:00,
2013-01-29 13:25:00,50.6,-99.9,30.22,NW,307,0.0,20.6,-999,-99.99,,,-99.99,,2013-01-29 21:25:00,
2013-01-29 13:30:00,50.8,-99.9,30.22,WSW,255,17.9,17.9,-999,-99.99,,,-99.99,,2013-01-29 21:30:00,
2013-01-29 13:40:00,50.8,-99.9,30.22,NW,306,0.0,8.7,-999,-99.99,,,-99.99,,2013-01-29 21:40:00,
2013-01-29 13:45:00,50.9,-99.9,30.21,WNW,293,20.0,23.7,-999,-99.99,,,-99.99,,2013-01-29 21:45:00,
2013-01-29 13:50:00,51.2,-99.9,30.21,NW,314,0.0,13.2,-999,-99.99,,,-99.99,,2013-01-29 21:50:00,
2013-01-29 14:00:00,51.1,-99.9,30.21,West,262,0.0,0.0,-999,-99.99,,,-99.99,,2013-01-29 22:00:00,
2013-01-29 14:10:00,51.4,-99.9,30.21,WSW,248,0.0,0.0,-999,-99.99,,,-99.99,,2013-01-29 22:10:00,
2013-01-29 14:20:00,51.6,-99.9,30.21,WSW,245,0.0,0.0,-999,-99.99,,,-99.99,,2013-01-29 22:20:00,
2013-01-29 14:30:00,51.8,-99.9,30.21,WSW,245,0.0,0.0,-999,-99.99,,,-99.99,,2013-01-29 22:30:00,
2013-01-29 14:35:00,51.9,-99.9,30.21,WSW,245,0.0,0.0,-999,-99.99,,,-99.99,,2013-01-29 22:35:00,
2013-01-29 14:40:00,52.1,-99.9,30.21,WSW,239,0.0,0.0,-999,-99.99,,,-99.99,,2013-01-29 22:40:00,
2013-01-29 14:50:00,52.4,-99.9,30.21,West,271,0.0,15.9,-999,-99.99,,,-99.99,,2013-01-29 22:50:00,
2013-01-29 15:00:00,52.3,-99.9,30.20,WNW,292,0.0,0.0,-999,-99.99,,,-99.99,,2013-01-29 23:00:00,
2013-01-29 15:05:00,52.5,-99.9,30.20,WNW,303,0.0,0.0,-999,-99.99,,,-99.99,,2013-01-29 23:05:00,
2013-01-29 15:10:00,52.7,-99.9,30.20,West,278,0.0,12.2,-999,-99.99,,,-99.99,,2013-01-29 23:10:00,
2013-01-29 15:15:00,52.7,-99.9,30.20,West,278,0.0,0.0,-999,-99.99,,,-99.99,,2013-01-29 23:15:00,
2013-01-29 15:20:00,52.8,-99.9,30.20,NW,316,0.0,0.0,-999,-99.99,,,-99.99,,2013-01-29 23:20:00,
2013-01-29 15:25:00,53.0,-99.9,30.20,WNW,296,0.0,14.6,-999,-99.99,,,-99.99,,2013-01-29 23:25:00,
2013-01-29 15:30:00,53.0,-99.9,30.20,WNW,283,0.0,2.7,-999,-99.99,,,-99.99,,2013-01-29 23:30:00,
2013-01-29 15:40:00,52.9,-99.9,30.20,West,263,0.0,0.0,-999,-99.99,,,-99.99,,2013-01-29 23:40:00,
2013-01-29 15:50:00,53.2,-99.9,30.20,SW,231,0.0,7.6,-999,-99.99,,,-99.99,,2013-01-29 23:50:00,
2013-01-29 15:55:00,53.1,-99.9,30.20,WNW,285,0.0,0.0,-999,-99.99,,,-99.99,,2013-01-29 23:55:00,
2013-01-29 16:00:00,53.3,-99.9,30.20,WNW,283,0.0,0.0,-999,-99.99,,,-99.99,,2013-01-30 00:00:00,
2013-01-29 16:10:00,53.4,-99.9,30.20,WNW,283,0.0,0.0,-999,-99.99,,,-99.99,,2013-01-30 00:10:00,
2013-01-29 16:15:00,53.4,-99.9,30.21,WNW,283,0.0,0.0,-999,-99.99,,,-99.99,,2013-01-30 00:15:00,
2013-01-29 16:20:00,53.5,-99.9,30.20,WNW,283,0.0,0.0,-999,-99.99,,,-99.99,,2013-01-30 00:20:00,
2013-01-29 16:30:00,53.7,-99.9,30.20,NW,309,0.0,0.0,-999,-99.99,,,-99.99,,2013-01-30 00:30:00,
2013-01-29 16:40:00,53.6,-99.9,30.20,NW,309,0.0,0.0,-999,-99.99,,,-99.99,,2013-01-30 00:40:00,
2013-01-29 16:50:00,53.5,-99.9,30.20,NW,309,0.0,0.0,-999,-99.99,,,-99.99,,2013-01-30 00:50:00,
2013-01-29 17:00:00,53.5,-99.9,30.20,West,275,0.0,0.0,-999,-99.99,,,-99.99,,2013-01-30 01:00:00,
2013-01-29 17:05:00,53.5,-99.9,30.20,West,275,0.0,0.0,-999,-99.99,,,-99.99,,2013-01-30 01:05:00,
2013-01-29 17:10:00,53.5,-99.9,30.20,West,275,0.0,0.0,-999,-99.99,,,-99.99,,2013-01-30 01:10:00,
2013-01-29 17:20:00,53.4,-99.9,30.20,West,275,0.0,0.0,-999,-99.99,,,-99.99,,2013-01-30 01:20:00,
2013-01-29 17:30:00,53.3,-99.9,30.20,West,275,0.0,0.0,-999,-99.99,,,-99.99,,2013-01-30 01:30:00,
2013-01-29 17:40:00,53.3,-99.9,30.20,West,275,0.0,0.0,-999,-99.99,,,-99.99,,2013-01-30 01:40:00,
2013-01-29 17:50:00,53.3,-99.9,30.20,West,275,0.0,0.0,-999,-99.99,,,-99.99,,2013-01-30 01:50:00,
2013-01-29 18:00:00,53.1,-99.9,30.21,West,275,0.0,0.0,-999,-99.99,,,-99.99,,2013-01-30 02:00:00,
2013-01-29 18:10:00,53.0,-99.9,30.20,West,275,0.0,0.0,-999,-99.99,,,-99.99,,2013-01-30 02:10:00,
2013-01-29 18:20:00,52.9,-99.9,30.21,West,275,0.0,0.0,-999,-99.99,,,-99.99,,2013-01-30 02:20:00,
2013-01-29 18:30:00,53.0,-99.9,30.21,West,275,0.0,0.0,-999,-99.99,,,-99.99,,2013-01-30 02:30:00,
2013-01-29 18:35:00,52.7,-99.9,30.21,West,275,0.0,0.0,-999,-99.99,,,-99.99,,2013-01-30 02:35:00,
2013-01-29 18:40:00,52.3,-99.9,30.21,West,275,0.0,0.0,-999,-99.99,,,-99.99,,2013-01-30 02:40:00,
2013-01-29 18:50:00,52.6,-99.9,30.22,West,275,0.0,0.0,-999,-99.99,,,-99.99,,2013-01-30 02:50:00,
2013-01-29 19:00:00,52.7,-99.9,30.22,West,275,0.0,0.0,-999,-99.99,,,-99.99,,2013-01-30 03:00:00,
2013-01-29 19:10:00,52.4,-99.9,30.22,West,275,0.0,0.0,-999,-99.99,,,-99.99,,2013-01-30 03:10:00,
2013-01-29 19:20:00,52.3,-99.9,30.22,West,275,0.0,0.0,-999,-99.99,,,-99.99,,2013-01-30 03:20:00,
2013-01-29 19:30:00,51.7,-99.9,30.22,West,275,0.0,0.0,-999,-99.99,,,-99.99,,2013-01-30 03:30:00,
2013-01-29 19:40:00,52.1,-99.9,30.22,West,275,0.0,0.0,-999,-99.99,,,-99.99,,2013-01-30 03:40:00,
2013-01-29 19:50:00,52.0,-99.9,30.22,West,275,0.0,0.0,-999,-99.99,,,-99.99,,2013-01-30 03:50:00,
2013-01-29 20:00:00,52.0,-99.9,30.22,West,275,0.0,0.0,-999,-99.99,,,-99.99,,2013-01-30 04:00:00,
2013-01-29 20:10:00,51.8,-99.9,30.22,West,275,0.0,0.0,-999,-99.99,,,-99.99,,2013-01-30 04:10:00,
2013-01-29 20:20:00,51.4,-99.9,30.22,West,275,0.0,0.0,-999,-99.99,,,-99.99,,2013-01-30 04:20:00,
2013-01-29 20:25:00,51.5,-99.9,30.22,West,275,0.0,0.0,-999,-99.99,,,-99.99,,2013-01-30 04:25:00,
2013-01-29 20:30:00,51.2,-99.9,30.23,West,275,0.0,0.0,-999,-99.99,,,-99.99,,2013-01-30 04:30:00,
2013-01-29 20:40:00,51.2,-99.9,30.22,West,275,0.0,0.0,-999,-99.99,,,-99.99,,2013-01-30 04:40:00,
2013-01-29 20:50:00,51.4,-99.9,30.22,West,275,0.0,0.0,-999,-99.99,,,-99.99,,2013-01-30 04:50:00,
2013-01-29 21:00:00,51.3,-99.9,30.22,West,275,0.0,0.0,-999,-99.99,,,-99.99,,2013-01-30 05:00:00,
2013-01-29 21:05:00,51.2,-99.9,30.22,West,275,0.0,0.0,-999,-99.99,,,-99.99,,2013-01-30 05:05:00,
2013-01-29 21:10:00,51.2,-99.9,30.22,West,275,0.0,0.0,-999,-99.99,,,-99.99,,2013-01-30 05:10:00,
2013-01-29 21:15:00,51.3,-99.9,30.23,West,275,0.0,0.0,-999,-99.99,,,-99.99,,2013-01-30 05:15:00,
2013-01-29 21:20:00,50.8,-99.9,30.22,West,275,0.0,0.0,-999,-99.99,,,-99.99,,2013-01-30 05:20:00,
2013-01-29 21:25:00,51.1,-99.9,30.23,West,275,0.0,0.0,-999,-99.99,,,-99.99,,2013-01-30 05:25:00,
2013-01-29 21:30:00,51.0,-99.9,30.22,West,275,0.0,0.0,-999,-99.99,,,-99.99,,2013-01-30 05:30:00,
2013-01-29 21:40:00,51.1,-99.9,30.22,West,275,0.0,0.0,-999,-99.99,,,-99.99,,2013-01-30 05:40:00,
2013-01-29 21:45:00,51.2,-99.9,30.22,West,275,0.0,0.0,-999,-99.99,,,-99.99,,2013-01-30 05:45:00,
2013-01-29 21:50:00,51.2,-99.9,30.22,West,275,0.0,0.0,-999,-99.99,,,-99.99,,2013-01-30 05:50:00,
2013-01-29 21:55:00,50.8,-99.9,30.22,West,275,0.0,0.0,-999,-99.99,,,-99.99,,2013-01-30 05:55:00,
2013-01-29 22:00:00,50.9,-99.9,30.22,West,275,0.0,0.0,-999,-99.99,,,-99.99,,2013-01-30 06:00:00,
2013-01-29 22:05:00,50.3,-99.9,30.22,West,275,0.0,0.0,-999,-99.99,,,-99.99,,2013-01-30 06:05:00,
2013-01-29 22:10:00,50.5,-99.9,30.22,West,275,0.0,0.0,-999,-99.99,,,-99.99,,2013-01-30 06:10:00,
2013-01-29 22:20:00,50.5,-99.9,30.22,West,275,0.0,0.0,-999,-99.99,,,-99.99,,2013-01-30 06:20:00,
2013-01-29 22:25:00,50.6,-99.9,30.22,West,275,0.0,0.0,-999,-99.99,,,-99.99,,2013-01-30 06:25:00,
2013-01-29 22:30:00,50.7,-99.9,30.22,West,275,0.0,0.0,-999,-99.99,,,-99.99,,2013-01-30 06:30:00,
2013-01-29 22:35:00,50.8,-99.9,30.22,West,275,0.0,0.0,-999,-99.99,,,-99.99,,2013-01-30 06:35:00,
2013-01-29 22:40:00,50.4,-99.9,30.22,West,275,0.0,0.0,-999,-99.99,,,-99.99,,2013-01-30 06:40:00,
2013-01-29 22:45:00,50.4,-99.9,30.22,West,275,0.0,0.0,-999,-99.99,,,-99.99,,2013-01-30 06:45:00,
2013-01-29 22:50:00,50.2,-99.9,30.22,West,275,0.0,0.0,-999,-99.99,,,-99.99,,2013-01-30 06:50:00,
2013-01-29 22:55:00,50.0,-99.9,30.22,West,275,0.0,0.0,-999,-99.99,,,-99.99,,2013-01-30 06:55:00,
2013-01-29 23:00:00,50.2,-99.9,30.23,West,275,0.0,0.0,-999,-99.99,,,-99.99,,2013-01-30 07:00:00,
2013-01-29 23:05:00,49.8,-99.9,30.23,West,275,0.0,0.0,-999,-99.99,,,-99.99,,2013-01-30 07:05:00,
2013-01-29 23:10:00,50.1,-99.9,30.23,West,275,0.0,0.0,-999,-99.99,,,-99.99,,2013-01-30 07:10:00,
2013-01-29 23:15:00,50.0,-99.9,30.23,West,275,0.0,0.0,-999,-99.99,,,-99.99,,2013-01-30 07:15:00,
2013-01-29 23:20:00,49.9,-99.9,30.23,West,275,0.0,0.0,-999,-99.99,,,-99.99,,2013-01-30 07:20:00,
2013-01-29 23:25:00,50.1,-99.9,30.23,West,275,0.0,0.0,-999,-99.99,,,-99.99,,2013-01-30 07:25:00,
2013-01-29 23:30:00,50.1,-99.9,30.23,West,275,0.0,0.0,-999,-99.99,,,-99.99,,2013-01-30 07:30:00,
2013-01-29 23:40:00,50.1,-99.9,30.23,West,275,0.0,0.0,-999,-99.99,,,-99.99,,2013-01-30 07:40:00,
2013-01-29 23:45:00,50.0,-99.9,30.23,West,275,0.0,0.0,-999,-99.99,,,-99.99,,2013-01-30 07:45:00,
2013-01-29 23:50:00,50.2,-99.9,30.22,West,275,0.0,0.0,-999,-99.99,,,-99.99,,2013-01-30 07:50:00,
2013-01-29 23:55:00,50.0,-99.9,30.22,West,275,0.0,0.0,-999,-99.99,,,-99.99,,2013-01-30 07:55:00,